Wind_Speed
4 6 7 6 7 9 11 12 12 12 14 16 16 17 16 17 17 16 17 17 17 15 15 16 16 16 16 16 15 15 14 13 13 12 12 13 12 12 13 12 12 13 13 13
5 7 9 10 10 11 12 13 13 13 15 16 17 17 16 16 17 18 17 17 17 16 17 18 16 15 15 15 14 14 13 13 13 12 12 12 13 13 12 12 13 13 13 13
7 9 11 11 11 12 12 12 13 15 15 16 17 16 15 15 17 17 17 17 18 18 18 18 16 15 15 14 13 13 12 12 12 12 12 12 13 13 13 13 13 14 14 14
9 10 12 12 11 11 13 12 13 14 15 15 16 17 14 15 16 16 16 16 17 17 18 17 15 14 14 14 13 13 12 12 12 12 11 12 13 13 13 13 13 14 14 14
8 10 12 13 13 13 13 13 14 14 14 14 13 15 15 16 17 15 16 16 17 17 17 17 16 15 14 14 13 13 12 12 12 12 12 12 12 13 13 13 13 13 14 14
9 10 12 12 13 13 13 14 14 13 12 13 12 14 15 18 17 15 16 17 17 17 16 16 16 15 15 14 13 13 12 11 12 12 12 12 12 13 13 13 14 14 14 14
11 11 13 13 14 14 13 13 12 12 12 12 11 14 15 17 16 15 16 17 17 16 15 15 14 13 14 13 12 12 12 11 12 12 12 12 12 13 13 14 14 15 15 14
12 12 13 15 15 13 12 11 11 13 13 12 12 14 16 17 17 17 17 17 17 15 14 14 14 13 13 13 12 12 12 12 12 12 12 12 13 13 13 14 14 14 14 14
14 12 13 14 14 13 12 11 12 13 13 13 13 15 17 17 18 19 17 15 15 15 14 14 14 13 13 12 12 12 12 12 12 12 12 12 13 13 14 14 14 14 15 15
15 14 13 14 14 13 12 11 12 12 14 14 13 14 17 19 19 19 17 14 14 14 13 14 14 14 14 12 12 12 12 13 13 13 12 12 12 13 14 14 15 14 14 14
17 16 14 14 15 14 14 14 14 14 15 15 14 13 17 18 19 18 18 16 15 15 13 13 13 14 13 13 12 12 12 13 13 13 12 12 13 13 14 14 14 14 13 14
18 17 16 15 15 15 15 15 16 16 15 16 17 16 18 19 19 19 18 17 16 15 13 13 13 13 13 13 12 12 12 12 13 13 13 13 13 13 13 13 13 13 13 13
18 18 17 15 15 15 15 15 16 17 17 18 17 17 18 19 19 19 18 17 17 16 15 13 13 12 13 13 12 12 12 12 13 13 13 13 14 13 13 13 14 13 14 13
18 18 18 17 15 15 17 17 16 18 19 20 18 17 19 19 20 19 19 17 17 15 15 15 13 12 13 13 12 12 12 13 14 15 15 14 14 14 14 14 14 13 14 13
20 19 19 18 17 17 19 19 19 19 20 20 19 19 20 21 21 20 19 19 18 16 15 14 13 13 13 13 13 13 13 14 15 15 16 15 15 14 14 14 14 14 13 13
21 21 20 19 18 18 19 19 20 21 22 21 21 20 21 21 20 20 19 19 18 17 16 16 16 16 15 15 15 15 14 14 15 15 15 15 15 14 14 14 14 13 13 14
23 23 22 21 19 20 19 18 20 21 21 20 20 21 21 21 20 20 20 20 19 18 18 18 17 17 16 16 15 15 15 15 15 15 14 15 14 14 14 14 14 14 14 14
24 24 24 23 21 21 20 20 21 21 21 21 22 21 21 22 21 21 22 22 22 21 20 19 19 19 18 17 17 16 15 15 16 15 15 15 14 14 15 14 13 14 14 13
25 25 25 24 23 23 23 22 22 22 22 22 22 21 21 22 22 22 23 23 22 21 21 20 19 19 18 17 17 17 16 16 17 16 16 15 16 16 16 14 13 13 14 14
26 26 26 25 25 25 25 24 23 23 25 24 24 24 23 23 23 23 23 23 22 22 21 20 19 18 18 17 17 17 17 17 17 17 17 17 17 16 15 14 14 15 15 14
28 27 28 28 28 28 26 26 25 25 27 26 25 25 24 24 24 24 23 23 22 21 21 20 20 19 18 18 18 18 18 18 18 17 16 17 17 17 16 15 15 15 15 14
30 30 30 30 30 30 27 25 26 28 28 28 27 27 26 25 25 24 23 23 22 21 21 20 20 19 19 19 19 19 18 18 19 18 18 17 17 17 16 16 16 16 16 16
30 30 31 32 32 30 29 29 28 29 29 28 28 27 26 26 25 24 24 23 23 22 22 21 21 20 20 20 20 20 20 19 19 18 18 17 17 17 17 17 17 17 17 17
32 30 31 32 32 31 29 29 30 30 29 27 27 28 28 27 26 25 25 24 23 23 23 23 22 22 21 21 22 22 21 21 20 18 18 18 18 18 18 18 18 19 19 18
30 30 31 32 33 33 32 31 31 31 31 31 29 28 28 27 27 27 26 25 25 24 23 23 24 24 23 22 22 22 22 21 21 20 20 19 19 19 19 19 18 18 18 18
32 32 31 31 31 32 32 32 31 31 31 31 30 29 28 28 28 27 27 26 25 24 24 24 24 24 23 23 22 22 22 21 21 21 21 21 21 21 20 20 19 19 19 18
Wind_Direction
316 298 300 297 286 284 285 281 284 289 282 281 284 285 288 282 284 286 288 287 285 282 285 284 282 282 282 281 281 279 279 278 274 274 275 271 270 270 270 270 271 270 271 274
291 292 294 287 282 277 280 283 284 282 278 282 287 287 285 281 282 284 288 289 287 286 286 284 284 283 282 281 280 278 276 275 273 272 273 271 271 272 270 268 269 271 273 273
283 280 278 274 274 278 282 281 280 281 284 286 292 291 288 286 285 288 288 289 287 286 286 284 282 282 280 279 279 277 274 272 271 270 271 270 272 272 269 269 271 275 277 277
270 277 280 281 280 276 280 278 278 281 281 285 290 290 291 289 287 289 292 292 289 291 286 286 282 281 277 278 277 276 272 268 268 271 273 271 270 270 270 271 273 277 279 279
262 271 277 281 280 278 277 275 276 279 281 285 290 288 291 291 290 292 293 295 294 292 289 287 285 283 278 278 277 276 271 264 266 269 272 274 272 273 273 273 274 276 280 282
276 275 276 280 280 281 282 281 283 285 285 286 293 289 289 288 290 294 297 297 294 291 288 286 283 284 283 278 276 274 271 268 269 271 272 273 275 277 275 275 276 277 279 278
282 276 279 284 283 284 284 287 289 290 287 287 289 293 291 291 294 292 295 298 297 294 288 284 287 287 286 283 280 276 272 270 271 272 273 273 275 277 277 278 279 278 279 276
278 272 268 277 285 287 286 288 287 284 284 287 285 285 289 295 297 295 293 295 294 293 289 288 292 291 290 287 282 276 275 275 274 273 276 277 276 276 277 279 280 280 280 280
270 271 272 278 283 280 282 281 286 284 283 283 280 286 289 297 297 298 296 292 292 292 288 288 289 290 289 289 283 277 275 274 274 274 276 277 279 276 278 281 281 280 280 280
270 271 274 281 285 282 281 283 282 281 286 287 286 286 287 292 295 296 292 290 290 291 284 284 285 287 288 287 284 280 276 275 275 275 278 280 280 282 282 284 283 282 280 279
277 276 275 276 279 282 283 279 280 281 279 284 287 286 288 290 291 295 292 288 288 287 283 282 284 286 287 287 283 280 278 275 276 277 279 282 285 286 286 287 286 285 283 282
274 274 273 275 278 279 281 280 280 281 278 280 283 284 284 289 290 291 289 288 286 284 282 280 281 281 281 282 280 278 277 275 277 279 281 284 286 287 287 287 287 284 285 284
276 274 273 272 274 277 282 281 281 281 281 281 286 286 282 285 288 288 287 287 285 282 280 279 277 277 277 278 277 276 276 275 277 280 280 281 284 285 286 286 289 286 285 283
274 272 270 271 273 276 278 278 278 279 280 282 284 287 283 285 286 284 286 285 283 284 279 278 277 275 276 276 276 276 275 276 278 280 278 279 280 282 284 287 290 289 289 287
269 270 273 273 274 276 277 277 276 274 277 280 280 280 280 281 281 280 282 283 281 282 280 276 271 270 271 273 275 277 276 277 279 279 277 276 276 278 281 283 287 286 288 288
269 270 271 272 274 273 275 274 277 279 280 280 279 277 280 283 281 279 280 282 282 278 276 273 272 270 271 274 275 274 274 275 276 277 275 273 274 275 278 279 284 284 283 285
270 270 270 270 271 272 271 273 277 279 278 276 275 275 276 277 275 275 278 279 279 277 274 272 272 272 271 273 273 271 272 273 274 275 274 274 273 275 276 276 278 281 280 280
269 270 272 272 270 271 272 274 276 277 278 275 273 272 273 274 273 275 277 277 277 276 275 276 274 272 271 272 271 271 271 271 272 274 274 271 272 274 273 274 278 281 279 279
265 266 269 271 269 268 269 269 271 271 273 273 273 271 271 275 277 275 276 276 276 275 275 274 274 273 271 270 270 271 271 271 271 270 272 272 272 273 274 273 277 282 284 282
265 265 266 267 268 266 267 270 271 271 270 270 271 272 273 275 274 275 276 277 278 276 275 272 270 268 270 270 271 272 273 272 271 270 269 271 272 273 272 273 276 281 282 283
265 266 266 266 267 266 266 268 270 270 271 272 273 273 275 272 271 271 274 275 275 276 275 272 268 267 266 266 268 273 275 275 276 274 272 272 271 270 268 270 275 278 281 282
263 265 265 265 264 263 265 267 267 268 270 272 272 273 274 273 271 271 272 272 271 272 272 271 269 268 267 267 269 271 275 276 279 277 274 272 270 268 266 269 272 274 277 279
260 262 263 263 263 264 265 264 263 265 267 268 270 272 272 272 271 271 269 268 267 267 268 268 267 267 266 267 269 269 271 273 276 276 275 272 269 268 269 269 270 272 276 276
258 259 260 262 262 263 265 264 263 264 266 266 268 270 269 268 268 268 267 267 267 264 264 266 266 265 265 266 268 269 269 270 272 271 270 270 271 271 273 272 271 271 273 274
257 259 260 262 262 262 262 262 263 265 265 267 267 266 267 266 266 266 266 265 264 264 263 265 265 264 264 266 268 267 268 269 269 269 267 267 270 272 273 273 273 274 276 276
259 259 258 260 262 261 260 260 262 263 263 264 264 263 264 266 265 265 264 263 262 262 263 264 265 264 264 266 266 267 266 265 266 268 267 266 268 269 270 271 272 274 276 275
Height
5853 5854 5854 5854 5855 5856 5857 5857 5857 5857 5855 5852 5851 5849 5848 5846 5845 5844 5843 5841 5840 5839 5839 5838 5837 5837 5837 5837 5837 5836 5836 5836 5836 5836 5836 5837 5837 5838 5838 5838 5838 5839 5839 5839
5854 5854 5854 5853 5853 5854 5854 5854 5854 5854 5852 5849 5848 5846 5845 5842 5842 5841 5840 5838 5836 5835 5835 5834 5833 5834 5833 5833 5833 5832 5832 5833 5833 5834 5834 5834 5835 5835 5835 5836 5836 5836 5836 5836
5852 5854 5853 5853 5852 5852 5852 5852 5851 5850 5849 5846 5844 5843 5841 5839 5838 5838 5837 5836 5834 5833 5832 5830 5830 5830 5830 5830 5829 5829 5829 5830 5830 5831 5831 5831 5832 5832 5833 5833 5833 5834 5834 5834
5850 5852 5851 5851 5851 5850 5850 5849 5848 5846 5845 5843 5842 5840 5840 5837 5835 5835 5834 5833 5831 5830 5828 5826 5826 5826 5826 5826 5826 5826 5826 5827 5828 5828 5829 5829 5829 5830 5830 5830 5830 5831 5831 5831
5849 5850 5849 5849 5849 5847 5846 5846 5844 5842 5841 5839 5839 5838 5838 5835 5832 5831 5831 5830 5828 5826 5825 5823 5822 5822 5822 5822 5822 5823 5823 5824 5825 5825 5826 5826 5826 5827 5827 5828 5828 5828 5828 5828
5846 5846 5846 5846 5845 5844 5843 5842 5840 5838 5838 5837 5836 5835 5834 5831 5829 5828 5827 5826 5825 5823 5822 5820 5819 5818 5818 5817 5818 5819 5820 5821 5822 5823 5823 5823 5824 5824 5824 5824 5825 5825 5825 5824
5844 5844 5843 5843 5842 5841 5840 5839 5838 5836 5835 5835 5834 5833 5831 5828 5826 5825 5823 5822 5821 5820 5818 5816 5815 5815 5815 5815 5816 5816 5817 5818 5819 5820 5820 5820 5821 5821 5821 5822 5822 5821 5821 5821
5842 5842 5841 5839 5839 5838 5837 5836 5836 5835 5834 5833 5831 5830 5828 5825 5824 5822 5821 5819 5818 5816 5815 5813 5812 5812 5813 5812 5813 5814 5814 5815 5816 5817 5817 5817 5818 5818 5818 5818 5818 5818 5817 5817
5838 5838 5838 5836 5835 5835 5834 5833 5833 5832 5830 5829 5829 5827 5824 5823 5821 5819 5818 5816 5814 5813 5812 5811 5810 5809 5810 5810 5810 5811 5812 5812 5813 5814 5814 5814 5815 5815 5815 5815 5815 5814 5814 5814
5834 5834 5835 5833 5832 5832 5831 5831 5830 5828 5827 5826 5826 5824 5821 5819 5818 5816 5814 5812 5811 5810 5809 5809 5808 5807 5807 5808 5808 5809 5809 5810 5810 5811 5811 5812 5812 5811 5811 5811 5811 5810 5810 5810
5829 5829 5830 5830 5829 5828 5828 5827 5825 5825 5824 5822 5821 5823 5817 5815 5814 5812 5811 5809 5808 5807 5806 5805 5805 5805 5805 5805 5805 5806 5806 5807 5807 5808 5808 5808 5808 5808 5808 5807 5807 5807 5806 5806
5826 5825 5825 5825 5825 5824 5824 5823 5822 5822 5820 5819 5818 5820 5814 5811 5810 5808 5807 5806 5805 5804 5803 5802 5802 5802 5802 5802 5803 5803 5803 5804 5805 5805 5805 5805 5805 5804 5804 5804 5804 5803 5803 5802
5821 5820 5820 5820 5821 5820 5819 5818 5818 5817 5816 5814 5813 5815 5810 5807 5806 5804 5803 5803 5802 5801 5800 5799 5799 5799 5799 5800 5800 5800 5800 5801 5801 5802 5802 5802 5801 5801 5801 5801 5800 5799 5799 5799
5815 5815 5815 5815 5815 5815 5814 5814 5814 5813 5811 5810 5809 5809 5806 5804 5802 5800 5800 5799 5797 5797 5796 5796 5796 5796 5796 5797 5797 5797 5797 5798 5798 5799 5799 5799 5798 5798 5798 5797 5797 5796 5796 5796
5810 5810 5809 5809 5809 5810 5810 5809 5808 5807 5806 5806 5804 5803 5801 5799 5797 5796 5795 5795 5793 5793 5793 5793 5792 5793 5793 5794 5794 5794 5794 5794 5795 5795 5795 5795 5795 5795 5795 5794 5794 5793 5793 5792
5804 5804 5804 5804 5804 5804 5803 5804 5803 5802 5801 5800 5799 5799 5796 5794 5793 5792 5791 5790 5790 5790 5790 5790 5789 5789 5790 5790 5790 5790 5790 5790 5791 5791 5791 5791 5791 5791 5791 5791 5791 5790 5789 5789
5798 5798 5798 5798 5799 5797 5798 5798 5797 5796 5795 5794 5793 5793 5791 5790 5789 5787 5786 5786 5786 5785 5786 5786 5786 5786 5786 5786 5785 5785 5786 5786 5786 5787 5787 5787 5787 5787 5788 5787 5787 5786 5786 5785
5792 5792 5791 5791 5792 5791 5794 5792 5791 5791 5789 5788 5787 5787 5786 5785 5784 5782 5782 5781 5780 5781 5781 5781 5781 5781 5782 5781 5781 5781 5781 5781 5782 5782 5783 5783 5783 5784 5784 5784 5783 5783 5782 5781
5785 5785 5784 5785 5785 5785 5786 5786 5785 5784 5783 5782 5781 5780 5781 5780 5779 5778 5777 5777 5776 5776 5776 5776 5776 5776 5777 5777 5777 5777 5777 5777 5777 5778 5779 5779 5779 5780 5780 5780 5780 5779 5778 5777
5777 5777 5778 5778 5778 5778 5780 5779 5778 5779 5777 5776 5775 5775 5775 5774 5773 5773 5772 5771 5770 5770 5771 5771 5771 5771 5772 5772 5773 5773 5773 5773 5773 5773 5774 5774 5775 5775 5776 5776 5776 5775 5774 5773
5769 5770 5770 5770 5770 5770 5772 5772 5772 5773 5771 5770 5769 5769 5768 5768 5767 5767 5766 5766 5765 5765 5765 5765 5766 5766 5767 5768 5768 5769 5769 5769 5768 5769 5769 5770 5770 5771 5771 5771 5771 5771 5770 5770
5762 5762 5762 5762 5763 5765 5765 5764 5765 5764 5763 5762 5762 5762 5762 5761 5761 5761 5760 5760 5760 5760 5760 5760 5761 5762 5762 5763 5763 5764 5764 5764 5764 5764 5765 5765 5766 5766 5766 5767 5767 5766 5766 5766
5753 5755 5755 5755 5756 5756 5756 5756 5755 5755 5755 5755 5755 5755 5755 5755 5755 5755 5755 5754 5754 5754 5755 5755 5756 5756 5757 5758 5758 5759 5759 5759 5759 5760 5760 5760 5761 5761 5761 5762 5762 5762 5761 5761
5744 5745 5746 5746 5746 5746 5747 5747 5747 5747 5747 5747 5747 5747 5747 5748 5748 5748 5748 5748 5748 5748 5749 5750 5750 5751 5752 5752 5753 5753 5754 5754 5755 5755 5756 5756 5756 5757 5757 5756 5757 5757 5756 5756
5735 5735 5736 5736 5737 5737 5738 5738 5738 5739 5739 5739 5739 5739 5739 5740 5740 5740 5741 5741 5741 5742 5743 5743 5744 5745 5746 5746 5747 5747 5748 5749 5749 5750 5750 5751 5751 5751 5751 5751 5751 5751 5751 5751
5725 5726 5726 5726 5727 5727 5727 5728 5728 5729 5730 5730 5730 5731 5731 5732 5732 5733 5733 5734 5734 5735 5736 5737 5737 5738 5739 5740 5741 5741 5742 5743 5743 5744 5744 5745 5745 5746 5746 5746 5746 5746 5746 5746